Bat Cave, NC

4:14 PM EDT on August 28, 2016 (GMT -0400)
Asheville Regional

Weather History for KAVL - March, 2007

Change the Weather History Date:

Tuesday, March 20, 2007

  Actual Average Record
Temperature  
Mean Temperature 57 °F 48 °F  
Max Temperature 71 °F 60 °F 83 °F (1948)
Min Temperature 42 °F 36 °F 13 °F (1923)
Degree Days  
Heating Degree Days 8 17  
Month to date heating degree days 346 385  
Since 1 July heating degree days 3542 3602  
Cooling Degree Days 0 0  
Month to date cooling degree days 0 0  
Year to date cooling degree days 0 0  
Growing Degree Days 6 (Base 50)    
Moisture  
Dew Point 46 °F    
Average Humidity 67    
Maximum Humidity 93    
Minimum Humidity 41    
Precipitation  
Precipitation 0.07 in 0.13 in 2.30 in (1875)
Month to date precipitation 4.15 2.46  
Year to date precipitation 8.95 9.89  
Snow  
Snow 0.00 in 0.10 in 7.50 in (1876)
Month to date snowfall T 1.3  
Since 1 July snowfall 1.9 8.6  
Snow Depth -    
Sea Level Pressure  
Sea Level Pressure 30.34 in    
Wind  
Wind Speed 6 mph (NNW)    
Max Wind Speed 16 mph    
Max Gust Speed 20 mph    
Visibility 9 miles    
Events Rain    
T = Trace of Precipitation, MM = Missing Value Source: NWS Daily Summary

Daily Weather History Graph

Daily Weather History Graph

Search for Another Location

Airport or City:

Trip Planner

Search our weather history database for the weather conditions in past years. The results will help you decide how hot, cold, wet, or windy it might be!

Date:

Astronomy

Mar. 20, 2007 Rise Set
Actual Time 7:34 AM EDT 7:41 PM EDT
Civil Twilight 7:08 AM EDT 8:07 PM EDT
Nautical Twilight 6:39 AM EDT 8:36 PM EDT
Astronomical Twilight 6:09 AM EDT 9:06 PM EDT
Moon 8:18 AM EDT (3/20) 9:56 PM EDT (3/20)
Length of Visible Light 12h 58m
Length of Day
12h 07m
Waxing Crescent, 4% of the Moon is Illuminated
Mar 20
Waxing Crescent
Mar 25
First Quarter
Apr 2
Full
Apr 10
Last Quarter
Apr 17
New

Hourly Weather History & Observations

Time (EDT) Temp. Windchill Dew Point Humidity Pressure Visibility Wind Dir Wind Speed Gust Speed Precip Events Conditions
12:54 AM 52.0 °F - 41.0 °F 66% 30.32 in 10.0 mi Calm Calm - 0.00 in   Mostly Cloudy
1:54 AM 48.9 °F - 43.0 °F 80% 30.33 in 10.0 mi NW 4.6 mph - 0.00 in Rain Light Rain
2:54 AM 46.0 °F - 42.1 °F 86% 30.29 in 10.0 mi Calm Calm - 0.00 in   Partly Cloudy
3:54 AM 44.1 °F 39.5 °F 41.0 °F 89% 30.29 in 10.0 mi NW 8.1 mph - N/A   Clear
4:54 AM 44.1 °F 41.5 °F 39.9 °F 85% 30.29 in 10.0 mi NNW 4.6 mph - N/A   Clear
5:54 AM 43.0 °F 40.3 °F 39.9 °F 89% 30.30 in 10.0 mi North 4.6 mph - N/A   Clear
6:54 AM 44.1 °F 40.8 °F 39.9 °F 85% 30.32 in 10.0 mi NNW 5.8 mph - N/A   Clear
7:54 AM 42.1 °F - 39.0 °F 89% 30.33 in 7.0 mi Calm Calm - N/A   Clear
8:54 AM 48.9 °F - 42.1 °F 77% 30.34 in 10.0 mi Calm Calm - N/A   Clear
9:54 AM 57.0 °F - 43.0 °F 59% 30.33 in 10.0 mi NNW 11.5 mph - N/A   Clear
10:54 AM 63.0 °F - 43.0 °F 48% 30.34 in 10.0 mi North 10.4 mph - N/A   Clear
11:54 AM 64.9 °F - 46.0 °F 50% 30.35 in 10.0 mi North 11.5 mph - N/A   Clear
12:54 PM 70.0 °F - 46.9 °F 44% 30.34 in 10.0 mi NNW 11.5 mph - N/A   Clear
1:54 PM 71.1 °F - 46.9 °F 42% 30.33 in 10.0 mi North 10.4 mph - N/A   Partly Cloudy
2:54 PM 68.0 °F - 46.0 °F 45% 30.33 in 10.0 mi North 6.9 mph - N/A   Overcast
3:54 PM 66.9 °F - 46.0 °F 47% 30.32 in 10.0 mi NNW 8.1 mph - N/A   Overcast
4:54 PM 60.1 °F - 54.0 °F 80% 30.35 in 6.0 mi SW 4.6 mph - 0.00 in Rain Light Rain
5:54 PM 59.0 °F - 54.0 °F 83% 30.35 in 10.0 mi Calm Calm - 0.03 in   Overcast
6:54 PM 59.0 °F - 55.0 °F 87% 30.36 in 9.0 mi Calm Calm - 0.00 in   Overcast
7:54 PM 57.0 °F - 53.1 °F 87% 30.40 in 3.0 mi NNW 8.1 mph - 0.02 in Rain Rain
8:54 PM 55.9 °F - 54.0 °F 93% 30.40 in 7.0 mi NNW 9.2 mph - 0.01 in Rain Light Rain
9:54 PM 55.9 °F - 53.1 °F 90% 30.40 in 6.0 mi NNW 8.1 mph - 0.01 in Rain Light Rain
10:54 PM 55.0 °F - 52.0 °F 89% 30.40 in 7.0 mi North 5.8 mph - 0.00 in   Overcast
11:54 PM 55.0 °F - 52.0 °F 89% 30.40 in 5.0 mi Calm Calm - N/A   Overcast